Time,TemperatureF,DewpointF,PressureIn,WindDirection,WindDirectionDegrees,WindSpeedMPH,WindSpeedGustMPH,Humidity,HourlyPrecipIn,Conditions,Clouds,dailyrainin,SoftwareType,DateUTC
2013-06-12 00:03:00,76.0,-99.9,29.86,WSW,253,2.0,5.0,-999,-99.99,,,-99.99,,2013-06-12 04:03:00,
2013-06-12 00:13:00,76.0,-99.9,29.86,WSW,253,2.0,5.0,-999,-99.99,,,-99.99,,2013-06-12 04:13:00,
2013-06-12 00:23:00,76.0,-99.9,29.86,SSW,202,0.0,4.0,-999,-99.99,,,-99.99,,2013-06-12 04:23:00,
2013-06-12 00:34:00,75.0,-99.9,29.86,SSW,205,0.0,0.0,-999,-99.99,,,-99.99,,2013-06-12 04:34:00,
2013-06-12 00:43:00,75.0,-99.9,29.85,SW,219,3.0,4.0,-999,-99.99,,,-99.99,,2013-06-12 04:43:00,
2013-06-12 00:53:00,75.0,-99.9,29.85,SW,219,3.0,4.0,-999,-99.99,,,-99.99,,2013-06-12 04:53:00,
2013-06-12 01:03:00,75.0,-99.9,29.85,SSW,194,0.0,6.0,-999,-99.99,,,-99.99,,2013-06-12 05:03:00,
2013-06-12 01:12:00,75.0,-99.9,29.85,SSW,213,3.0,6.0,-999,-99.99,,,-99.99,,2013-06-12 05:12:00,
2013-06-12 01:22:00,75.0,-99.9,29.85,SSW,213,3.0,6.0,-999,-99.99,,,-99.99,,2013-06-12 05:22:00,
2013-06-12 01:32:00,74.0,-99.9,29.86,SSW,195,0.0,0.0,-999,-99.99,,,-99.99,,2013-06-12 05:32:00,
2013-06-12 01:43:00,74.0,-99.9,29.87,SSW,195,0.0,0.0,-999,-99.99,,,-99.99,,2013-06-12 05:43:00,
2013-06-12 01:52:00,74.0,-99.9,29.87,SSW,195,0.0,0.0,-999,-99.99,,,-99.99,,2013-06-12 05:52:00,
2013-06-12 02:02:00,74.0,-99.9,29.86,SSW,195,0.0,0.0,-999,-99.99,,,-99.99,,2013-06-12 06:02:00,
2013-06-12 02:12:00,74.0,-99.9,29.86,SSW,195,0.0,0.0,-999,-99.99,,,-99.99,,2013-06-12 06:12:00,
2013-06-12 02:22:00,74.0,-99.9,29.86,SW,232,3.0,5.0,-999,-99.99,,,-99.99,,2013-06-12 06:22:00,
2013-06-12 02:32:00,74.0,-99.9,29.86,SW,229,3.0,5.0,-999,-99.99,,,-99.99,,2013-06-12 06:32:00,
2013-06-12 02:42:00,73.0,-99.9,29.86,SW,220,4.0,4.0,-999,-99.99,,,-99.99,,2013-06-12 06:42:00,
2013-06-12 02:52:00,73.0,-99.9,29.86,SW,220,4.0,4.0,-999,-99.99,,,-99.99,,2013-06-12 06:52:00,
2013-06-12 03:02:00,73.0,-99.9,29.86,WSW,251,5.0,5.0,-999,-99.99,,,-99.99,,2013-06-12 07:02:00,
2013-06-12 03:12:00,73.0,-99.9,29.86,SW,223,3.0,6.0,-999,-99.99,,,-99.99,,2013-06-12 07:12:00,
2013-06-12 03:22:00,73.0,-99.9,29.85,West,261,4.0,6.0,-999,-99.99,,,-99.99,,2013-06-12 07:22:00,
2013-06-12 03:33:00,73.0,-99.9,29.86,WSW,250,4.0,6.0,-999,-99.99,,,-99.99,,2013-06-12 07:33:00,
2013-06-12 03:43:00,73.0,-99.9,29.86,SW,227,5.0,7.0,-999,-99.99,,,-99.99,,2013-06-12 07:43:00,
2013-06-12 03:53:00,73.0,-99.9,29.86,WSW,247,4.0,6.0,-999,-99.99,,,-99.99,,2013-06-12 07:53:00,
2013-06-12 04:02:00,73.0,-99.9,29.86,SSW,202,0.0,7.0,-999,-99.99,,,-99.99,,2013-06-12 08:02:00,
2013-06-12 04:12:00,73.0,-99.9,29.86,WSW,244,4.0,5.0,-999,-99.99,,,-99.99,,2013-06-12 08:12:00,
2013-06-12 04:22:00,73.0,-99.9,29.86,West,277,0.0,5.0,-999,-99.99,,,-99.99,,2013-06-12 08:22:00,
2013-06-12 04:33:00,73.0,-99.9,29.87,WSW,255,0.0,5.0,-999,-99.99,,,-99.99,,2013-06-12 08:33:00,
2013-06-12 04:43:00,73.0,-99.9,29.87,WSW,254,0.0,4.0,-999,-99.99,,,-99.99,,2013-06-12 08:43:00,
2013-06-12 04:53:00,72.0,-99.9,29.86,SW,234,3.0,5.0,-999,-99.99,,,-99.99,,2013-06-12 08:53:00,
2013-06-12 05:01:00,72.0,-99.9,29.86,WSW,246,6.0,6.0,-999,-99.99,,,-99.99,,2013-06-12 09:01:00,
2013-06-12 05:12:00,72.0,-99.9,29.86,South,188,5.0,6.0,-999,-99.99,,,-99.99,,2013-06-12 09:12:00,
2013-06-12 05:22:00,72.0,-99.9,29.86,WSW,247,4.0,6.0,-999,-99.99,,,-99.99,,2013-06-12 09:22:00,
2013-06-12 05:33:00,72.0,-99.9,29.86,WSW,244,0.0,4.0,-999,-99.99,,,-99.99,,2013-06-12 09:33:00,
2013-06-12 05:43:00,72.0,-99.9,29.87,WSW,248,0.0,5.0,-999,-99.99,,,-99.99,,2013-06-12 09:43:00,
2013-06-12 05:53:00,72.0,-99.9,29.86,South,188,0.0,3.0,-999,-99.99,,,-99.99,,2013-06-12 09:53:00,
2013-06-12 06:02:00,72.0,-99.9,29.87,South,188,0.0,0.0,-999,-99.99,,,-99.99,,2013-06-12 10:02:00,
2013-06-12 06:12:00,72.0,-99.9,29.87,South,188,0.0,0.0,-999,-99.99,,,-99.99,,2013-06-12 10:12:00,
2013-06-12 06:23:00,72.0,-99.9,29.87,South,188,0.0,0.0,-999,-99.99,,,-99.99,,2013-06-12 10:23:00,
2013-06-12 06:33:00,72.0,-99.9,29.86,South,188,0.0,0.0,-999,-99.99,,,-99.99,,2013-06-12 10:33:00,
2013-06-12 06:43:00,72.0,-99.9,29.87,SW,215,3.0,0.0,-999,-99.99,,,-99.99,,2013-06-12 10:43:00,
2013-06-12 06:53:00,72.0,-99.9,29.87,WSW,239,3.0,5.0,-999,-99.99,,,-99.99,,2013-06-12 10:53:00,
2013-06-12 07:02:00,72.0,-99.9,29.87,WSW,240,6.0,6.0,-999,-99.99,,,-99.99,,2013-06-12 11:02:00,
2013-06-12 07:12:00,72.0,-99.9,29.87,WSW,254,4.0,7.0,-999,-99.99,,,-99.99,,2013-06-12 11:12:00,
2013-06-12 07:24:00,71.0,-99.9,29.88,WSW,240,6.0,8.0,-999,-99.99,,,-99.99,,2013-06-12 11:24:00,
2013-06-12 07:34:00,72.0,-99.9,29.88,West,268,4.0,8.0,-999,-99.99,,,-99.99,,2013-06-12 11:34:00,
2013-06-12 07:43:00,72.0,-99.9,29.89,SSW,212,6.0,10.0,-999,-99.99,,,-99.99,,2013-06-12 11:43:00,
2013-06-12 07:53:00,72.0,-99.9,29.89,NW,306,4.0,8.0,-999,-99.99,,,-99.99,,2013-06-12 11:53:00,
2013-06-12 08:02:00,72.0,-99.9,29.89,SW,230,3.0,6.0,-999,-99.99,,,-99.99,,2013-06-12 12:02:00,
2013-06-12 08:11:00,72.0,-99.9,29.90,WNW,300,5.0,6.0,-999,-99.99,,,-99.99,,2013-06-12 12:11:00,
2013-06-12 08:23:00,72.0,-99.9,29.90,WSW,239,0.0,6.0,-999,-99.99,,,-99.99,,2013-06-12 12:23:00,
2013-06-12 08:33:00,72.0,-99.9,29.89,WSW,239,5.0,5.0,-999,-99.99,,,-99.99,,2013-06-12 12:33:00,
2013-06-12 08:43:00,72.0,-99.9,29.89,SW,229,5.0,6.0,-999,-99.99,,,-99.99,,2013-06-12 12:43:00,
2013-06-12 08:53:00,72.0,-99.9,29.89,WSW,251,4.0,6.0,-999,-99.99,,,-99.99,,2013-06-12 12:53:00,
2013-06-12 09:02:00,72.0,-99.9,29.90,SW,230,5.0,7.0,-999,-99.99,,,-99.99,,2013-06-12 13:02:00,
2013-06-12 09:12:00,72.0,-99.9,29.90,WSW,239,4.0,8.0,-999,-99.99,,,-99.99,,2013-06-12 13:12:00,
2013-06-12 09:22:00,73.0,-99.9,29.90,SW,233,5.0,6.0,-999,-99.99,,,-99.99,,2013-06-12 13:22:00,
2013-06-12 09:33:00,73.0,-99.9,29.90,West,260,4.0,8.0,-999,-99.99,,,-99.99,,2013-06-12 13:33:00,
2013-06-12 09:43:00,73.0,-99.9,29.90,SW,217,4.0,8.0,-999,-99.99,,,-99.99,,2013-06-12 13:43:00,
2013-06-12 09:53:00,74.0,-99.9,29.89,SW,236,5.0,8.0,-999,-99.99,,,-99.99,,2013-06-12 13:53:00,
2013-06-12 10:02:00,74.0,-99.9,29.89,WSW,248,5.0,8.0,-999,-99.99,,,-99.99,,2013-06-12 14:02:00,
2013-06-12 10:11:00,75.0,-99.9,29.89,WNW,299,0.0,10.0,-999,-99.99,,,-99.99,,2013-06-12 14:11:00,
2013-06-12 10:24:00,75.0,-99.9,29.89,SW,223,5.0,10.0,-999,-99.99,,,-99.99,,2013-06-12 14:24:00,
2013-06-12 10:33:00,75.0,-99.9,29.89,WSW,243,9.0,10.0,-999,-99.99,,,-99.99,,2013-06-12 14:33:00,
2013-06-12 10:43:00,77.0,-99.9,29.88,SW,229,3.0,9.0,-999,-99.99,,,-99.99,,2013-06-12 14:43:00,
2013-06-12 10:53:00,77.0,-99.9,29.88,WSW,240,7.0,11.0,-999,-99.99,,,-99.99,,2013-06-12 14:53:00,
2013-06-12 11:02:00,78.0,-99.9,29.88,West,274,4.0,11.0,-999,-99.99,,,-99.99,,2013-06-12 15:02:00,
2013-06-12 11:12:00,79.0,-99.9,29.88,West,265,4.0,10.0,-999,-99.99,,,-99.99,,2013-06-12 15:12:00,
2013-06-12 11:23:00,79.0,-99.9,29.87,SW,227,6.0,10.0,-999,-99.99,,,-99.99,,2013-06-12 15:23:00,
2013-06-12 11:33:00,80.0,-99.9,29.87,WSW,244,5.0,9.0,-999,-99.99,,,-99.99,,2013-06-12 15:33:00,
2013-06-12 11:43:00,80.0,-99.9,29.86,West,264,7.0,8.0,-999,-99.99,,,-99.99,,2013-06-12 15:43:00,
2013-06-12 11:52:00,80.0,-99.9,29.85,WSW,248,4.0,11.0,-999,-99.99,,,-99.99,,2013-06-12 15:52:00,
2013-06-12 12:02:00,80.0,-99.9,29.83,SW,227,5.0,10.0,-999,-99.99,,,-99.99,,2013-06-12 16:02:00,
2013-06-12 12:12:00,80.0,-99.9,29.80,SW,233,7.0,13.0,-999,-99.99,,,-99.99,,2013-06-12 16:12:00,
2013-06-12 12:22:00,80.0,-99.9,29.78,SW,232,11.0,14.0,-999,-99.99,,,-99.99,,2013-06-12 16:22:00,
2013-06-12 12:33:00,80.0,-99.9,29.78,SW,229,5.0,17.0,-999,-99.99,,,-99.99,,2013-06-12 16:33:00,
2013-06-12 12:43:00,80.0,-99.9,29.78,WSW,240,11.0,19.0,-999,-99.99,,,-99.99,,2013-06-12 16:43:00,
2013-06-12 12:53:00,80.0,-99.9,29.79,South,174,3.0,17.0,-999,-99.99,,,-99.99,,2013-06-12 16:53:00,
2013-06-12 13:02:00,80.0,-99.9,29.79,SW,216,7.0,14.0,-999,-99.99,,,-99.99,,2013-06-12 17:02:00,
2013-06-12 13:12:00,81.0,-99.9,29.79,SW,236,9.0,12.0,-999,-99.99,,,-99.99,,2013-06-12 17:12:00,
2013-06-12 13:23:00,81.0,-99.9,29.79,SSW,202,7.0,19.0,-999,-99.99,,,-99.99,,2013-06-12 17:23:00,
2013-06-12 13:33:00,81.0,-99.9,29.79,West,262,6.0,17.0,-999,-99.99,,,-99.99,,2013-06-12 17:33:00,
2013-06-12 13:43:00,82.0,-99.9,29.78,SSW,206,6.0,14.0,-999,-99.99,,,-99.99,,2013-06-12 17:43:00,
2013-06-12 13:52:00,83.0,-99.9,29.78,SW,234,13.0,18.0,-999,-99.99,,,-99.99,,2013-06-12 17:52:00,
2013-06-12 14:02:00,84.0,-99.9,29.78,SW,234,9.0,15.0,-999,-99.99,,,-99.99,,2013-06-12 18:02:00,
2013-06-12 14:12:00,84.0,-99.9,29.77,NW,324,4.0,20.0,-999,-99.99,,,-99.99,,2013-06-12 18:12:00,
2013-06-12 14:22:00,85.0,-99.9,29.76,West,274,7.0,10.0,-999,-99.99,,,-99.99,,2013-06-12 18:22:00,
2013-06-12 14:33:00,85.0,-99.9,29.77,SW,233,7.0,15.0,-999,-99.99,,,-99.99,,2013-06-12 18:33:00,
2013-06-12 14:43:00,86.0,-99.9,29.77,WSW,244,11.0,13.0,-999,-99.99,,,-99.99,,2013-06-12 18:43:00,
2013-06-12 14:53:00,86.0,-99.9,29.76,NW,305,6.0,17.0,-999,-99.99,,,-99.99,,2013-06-12 18:53:00,
2013-06-12 15:02:00,87.0,-99.9,29.76,SW,217,6.0,15.0,-999,-99.99,,,-99.99,,2013-06-12 19:02:00,
2013-06-12 15:11:00,87.0,-99.9,29.75,WSW,241,12.0,18.0,-999,-99.99,,,-99.99,,2013-06-12 19:11:00,
2013-06-12 15:22:00,87.0,-99.9,29.75,SW,220,7.0,18.0,-999,-99.99,,,-99.99,,2013-06-12 19:22:00,
2013-06-12 15:33:00,88.0,-99.9,29.75,SW,226,7.0,21.0,-999,-99.99,,,-99.99,,2013-06-12 19:33:00,
2013-06-12 15:43:00,88.0,-99.9,29.74,WSW,240,7.0,17.0,-999,-99.99,,,-99.99,,2013-06-12 19:43:00,
2013-06-12 15:52:00,88.0,-99.9,29.74,SW,234,5.0,17.0,-999,-99.99,,,-99.99,,2013-06-12 19:52:00,
2013-06-12 16:02:00,88.0,-99.9,29.73,WSW,251,9.0,18.0,-999,-99.99,,,-99.99,,2013-06-12 20:02:00,
2013-06-12 16:12:00,89.0,-99.9,29.73,WSW,243,8.0,16.0,-999,-99.99,,,-99.99,,2013-06-12 20:12:00,
2013-06-12 16:22:00,89.0,-99.9,29.72,WNW,300,5.0,17.0,-999,-99.99,,,-99.99,,2013-06-12 20:22:00,
2013-06-12 16:33:00,89.0,-99.9,29.72,West,278,4.0,16.0,-999,-99.99,,,-99.99,,2013-06-12 20:33:00,
2013-06-12 16:43:00,89.0,-99.9,29.72,WSW,255,7.0,16.0,-999,-99.99,,,-99.99,,2013-06-12 20:43:00,
2013-06-12 16:54:00,89.0,-99.9,29.72,West,277,6.0,14.0,-999,-99.99,,,-99.99,,2013-06-12 20:54:00,
2013-06-12 17:02:00,90.0,-99.9,29.72,SW,215,11.0,16.0,-999,-99.99,,,-99.99,,2013-06-12 21:02:00,
2013-06-12 17:12:00,90.0,-99.9,29.72,WSW,243,10.0,13.0,-999,-99.99,,,-99.99,,2013-06-12 21:12:00,
2013-06-12 17:22:00,90.0,-99.9,29.71,WSW,258,4.0,11.0,-999,-99.99,,,-99.99,,2013-06-12 21:22:00,
2013-06-12 17:33:00,89.0,-99.9,29.70,SW,236,0.0,13.0,-999,-99.99,,,-99.99,,2013-06-12 21:33:00,
2013-06-12 17:43:00,89.0,-99.9,29.70,WSW,248,6.0,17.0,-999,-99.99,,,-99.99,,2013-06-12 21:43:00,
2013-06-12 17:53:00,89.0,-99.9,29.69,West,265,7.0,17.0,-999,-99.99,,,-99.99,,2013-06-12 21:53:00,
2013-06-12 18:01:00,89.0,-99.9,29.68,SW,233,13.0,16.0,-999,-99.99,,,-99.99,,2013-06-12 22:01:00,
2013-06-12 18:11:00,89.0,-99.9,29.67,WSW,257,6.0,24.0,-999,-99.99,,,-99.99,,2013-06-12 22:11:00,
2013-06-12 18:22:00,89.0,-99.9,29.67,WSW,250,10.0,17.0,-999,-99.99,,,-99.99,,2013-06-12 22:22:00,
2013-06-12 18:33:00,89.0,-99.9,29.66,West,281,8.0,24.0,-999,-99.99,,,-99.99,,2013-06-12 22:33:00,
2013-06-12 18:43:00,88.0,-99.9,29.65,WNW,298,6.0,17.0,-999,-99.99,,,-99.99,,2013-06-12 22:43:00,
2013-06-12 18:53:00,88.0,-99.9,29.65,WSW,254,15.0,20.0,-999,-99.99,,,-99.99,,2013-06-12 22:53:00,
2013-06-12 19:02:00,88.0,-99.9,29.64,West,274,9.0,20.0,-999,-99.99,,,-99.99,,2013-06-12 23:02:00,
2013-06-12 19:12:00,88.0,-99.9,29.63,SSW,210,12.0,22.0,-999,-99.99,,,-99.99,,2013-06-12 23:12:00,
2013-06-12 19:22:00,88.0,-99.9,29.62,SW,216,6.0,21.0,-999,-99.99,,,-99.99,,2013-06-12 23:22:00,
2013-06-12 19:32:00,87.0,-99.9,29.62,WSW,240,8.0,20.0,-999,-99.99,,,-99.99,,2013-06-12 23:32:00,
2013-06-12 19:43:00,87.0,-99.9,29.62,SW,225,14.0,18.0,-999,-99.99,,,-99.99,,2013-06-12 23:43:00,
2013-06-12 19:53:00,87.0,-99.9,29.62,West,262,8.0,22.0,-999,-99.99,,,-99.99,,2013-06-12 23:53:00,
2013-06-12 20:02:00,86.0,-99.9,29.62,North,358,3.0,22.0,-999,-99.99,,,-99.99,,2013-06-13 00:02:00,
2013-06-12 20:12:00,86.0,-99.9,29.62,SSW,196,7.0,22.0,-999,-99.99,,,-99.99,,2013-06-13 00:12:00,
2013-06-12 20:22:00,86.0,-99.9,29.62,WSW,246,5.0,15.0,-999,-99.99,,,-99.99,,2013-06-13 00:22:00,
2013-06-12 20:33:00,86.0,-99.9,29.62,WNW,282,14.0,23.0,-999,-99.99,,,-99.99,,2013-06-13 00:33:00,
2013-06-12 20:43:00,85.0,-99.9,29.62,WNW,288,11.0,17.0,-999,-99.99,,,-99.99,,2013-06-13 00:43:00,
2013-06-12 20:52:00,85.0,-99.9,29.62,West,265,8.0,15.0,-999,-99.99,,,-99.99,,2013-06-13 00:52:00,
2013-06-12 21:01:00,85.0,-99.9,29.62,West,262,10.0,16.0,-999,-99.99,,,-99.99,,2013-06-13 01:01:00,
2013-06-12 21:12:00,84.0,-99.9,29.61,SW,230,8.0,14.0,-999,-99.99,,,-99.99,,2013-06-13 01:12:00,
2013-06-12 21:22:00,84.0,-99.9,29.62,WNW,300,5.0,14.0,-999,-99.99,,,-99.99,,2013-06-13 01:22:00,
2013-06-12 21:33:00,84.0,-99.9,29.62,West,264,5.0,12.0,-999,-99.99,,,-99.99,,2013-06-13 01:33:00,
2013-06-12 21:43:00,83.0,-99.9,29.63,WSW,248,11.0,16.0,-999,-99.99,,,-99.99,,2013-06-13 01:43:00,
2013-06-12 21:53:00,83.0,-99.9,29.63,West,278,5.0,10.0,-999,-99.99,,,-99.99,,2013-06-13 01:53:00,
2013-06-12 22:02:00,83.0,-99.9,29.65,West,262,7.0,14.0,-999,-99.99,,,-99.99,,2013-06-13 02:02:00,
2013-06-12 22:12:00,82.0,-99.9,29.65,West,279,5.0,14.0,-999,-99.99,,,-99.99,,2013-06-13 02:12:00,
2013-06-12 22:22:00,82.0,-99.9,29.65,WNW,299,7.0,15.0,-999,-99.99,,,-99.99,,2013-06-13 02:22:00,
2013-06-12 22:33:00,82.0,-99.9,29.66,WNW,298,6.0,12.0,-999,-99.99,,,-99.99,,2013-06-13 02:33:00,
2013-06-12 22:43:00,82.0,-99.9,29.65,WNW,289,2.0,9.0,-999,-99.99,,,-99.99,,2013-06-13 02:43:00,
2013-06-12 22:52:00,81.0,-99.9,29.65,West,264,5.0,13.0,-999,-99.99,,,-99.99,,2013-06-13 02:52:00,
2013-06-12 23:02:00,81.0,-99.9,29.65,WNW,284,6.0,15.0,-999,-99.99,,,-99.99,,2013-06-13 03:02:00,
2013-06-12 23:12:00,81.0,-99.9,29.66,WNW,284,8.0,18.0,-999,-99.99,,,-99.99,,2013-06-13 03:12:00,
2013-06-12 23:22:00,81.0,-99.9,29.65,WNW,296,3.0,9.0,-999,-99.99,,,-99.99,,2013-06-13 03:22:00,
2013-06-12 23:33:00,80.0,-99.9,29.67,WNW,284,4.0,12.0,-999,-99.99,,,-99.99,,2013-06-13 03:33:00,
2013-06-12 23:43:00,80.0,-99.9,29.65,WNW,292,7.0,10.0,-999,-99.99,,,-99.99,,2013-06-13 03:43:00,
2013-06-12 23:52:00,80.0,-99.9,29.65,WNW,285,13.0,13.0,-999,-99.99,,,-99.99,,2013-06-13 03:52:00,